TimeCST,TemperatureF,Dew PointF,Humidity,Sea Level PressureIn,VisibilityMPH,Wind Direction,Wind SpeedMPH,Gust SpeedMPH,PrecipitationIn,Events,Conditions,WindDirDegrees,DateUTC
12:47 AM,44.6,30.2,57,30.32,10.0,Calm,Calm,-,N/A,,Clear,0,2012-11-12 06:47:00
1:47 AM,41.0,30.2,65,30.31,10.0,Calm,Calm,-,N/A,,Clear,0,2012-11-12 07:47:00
3:41 AM,42.8,28.4,57,30.28,10.0,Calm,Calm,-,N/A,,Clear,0,2012-11-12 09:41:00
4:41 AM,42.8,28.4,57,30.28,10.0,Calm,Calm,-,N/A,,Clear,0,2012-11-12 10:41:00
5:41 AM,39.2,28.4,65,30.29,10.0,Calm,Calm,-,N/A,,Clear,0,2012-11-12 11:41:00
6:42 AM,44.6,30.2,57,30.33,8.0,North,6.9,-,N/A,,Scattered Clouds,350,2012-11-12 12:42:00
7:41 AM,44.6,30.2,57,30.34,10.0,Calm,Calm,-,N/A,,Clear,0,2012-11-12 13:41:00
8:42 AM,57.2,33.8,41,30.37,10.0,North,5.8,-,N/A,,Clear,360,2012-11-12 14:42:00
9:42 AM,64.4,39.2,40,30.40,10.0,ESE,11.5,-,N/A,,Clear,110,2012-11-12 15:42:00
10:42 AM,66.2,39.2,37,30.40,10.0,SE,11.5,-,N/A,,Clear,130,2012-11-12 16:42:00
11:42 AM,69.8,42.8,38,30.37,10.0,SE,11.5,-,N/A,,Clear,140,2012-11-12 17:42:00
12:57 PM,71.6,42.8,35,30.32,10.0,SE,13.8,-,N/A,,Clear,130,2012-11-12 18:57:00
1:51 PM,71.6,42.8,35,30.32,10.0,ENE,16.1,-,N/A,,Scattered Clouds,70,2012-11-12 19:51:00
2:57 PM,69.8,41.0,35,30.29,10.0,East,13.8,-,N/A,,Scattered Clouds,90,2012-11-12 20:57:00
3:47 PM,69.8,42.8,38,30.28,10.0,ESE,17.3,-,N/A,,Scattered Clouds,120,2012-11-12 21:47:00
4:45 PM,69.8,42.8,38,30.28,10.0,ESE,16.1,-,N/A,,Partly Cloudy,120,2012-11-12 22:45:00
5:45 PM,66.2,41.0,40,30.29,10.0,ESE,11.5,-,N/A,,Scattered Clouds,120,2012-11-12 23:45:00
6:45 PM,62.6,41.0,45,30.31,10.0,East,17.3,-,N/A,,Mostly Cloudy,100,2012-11-13 00:45:00
8:04 PM,59.0,41.0,51,30.35,10.0,ESE,17.3,-,N/A,,Mostly Cloudy,120,2012-11-13 02:04:00
8:44 PM,57.2,41.0,55,30.37,10.0,ESE,17.3,-,N/A,,Clear,120,2012-11-13 02:44:00
10:47 PM,55.4,42.8,63,30.38,10.0,SSE,16.1,-,N/A,,Clear,150,2012-11-13 04:47:00
11:50 PM,55.4,42.8,63,30.41,10.0,SSW,9.2,-,N/A,,Clear,210,2012-11-13 05:50:00